Location: Castiglione Fibocchi
(43.5333°N, 11.7667°E)
Time: 18:06:32
(UTC+00:00)

SL-16 R/B - Pass Details

Date: 15 August 2020
Orbit: 985 x 1007 km, 99.5° (Epoch: 19 September)

Event Time Altitude Azimuth Distance (km) Brightness Sun altitude
Exits shadow 01:09:25 69° 223° (SW) 1,076 2.4 -27.1°
Maximum altitude 01:09:54 72° 256° (WSW) 1,057 2.4 -27.0°
Drops below altitude 10° 01:16:10 10° 341° (NNW) 2,784 5.3 -26.4°
Sets 01:18:40 0° 344° (NNW) 3,735 6.1 -26.2°
